When you browse on this site, cookies collect data to enhance your experience and personalize the content and advertising you see.
Visit our Privacy Policy to learn more. By continuing to use the site, you agree to this use of cookies and data.
  • In Romania
  • List of Countries
  • For 7 days
  • Water Temperature
  • Satellite Maps
  • Weather Map
  • Weather Widgets
  • user-avatar
    Login

    Hourly Weather Umm al-Quwain

    Today, 19 July, Friday

    Time Temperature Precipitation Wind Pressure Humidity
    00:00 +35°C° 0 mm 1 mps 747 mmHg 71%
    01:00 +34°C° 0 mm 1 mps 746 mmHg 71%
    02:00 +34°C° 0 mm 1 mps 746 mmHg 71%
    03:00 +35°C° 0 mm 2 mps 746 mmHg 71%
    04:00 +33°C° 0 mm 1 mps 746 mmHg 71%
    05:00 +35°C° 0 mm 2 mps 747 mmHg 67%
    06:00 +35°C° 0 mm 3 mps 747 mmHg 64%
    07:00 +35°C° 0 mm 3 mps 748 mmHg 60%
    08:00 +37°C° 0 mm 3 mps 748 mmHg 54%
    09:00 +39°C° 0 mm 3 mps 748 mmHg 47%
    10:00 +42°C° 0 mm 3 mps 748 mmHg 40%
    11:00 +43°C° 0 mm 4 mps 748 mmHg 37%
    12:00 +46°C° 0 mm 5 mps 747 mmHg 33%
    13:00 +47°C° 0 mm 5 mps 747 mmHg 29%
    14:00 +46°C° 0 mm 6 mps 747 mmHg 33%
    15:00 +45°C° 0 mm 6 mps 746 mmHg 38%
    16:00 +45°C° 0 mm 6 mps 745 mmHg 43%
    17:00 +42°C° 0 mm 6 mps 746 mmHg 47%
    18:00 +41°C° 0 mm 5 mps 746 mmHg 52%
    19:00 +40°C° 0 mm 5 mps 747 mmHg 57%
    20:00 +38°C° 0 mm 3 mps 747 mmHg 58%
    21:00 +37°C° 0 mm 2 mps 747 mmHg 58%
    22:00 +36°C° 0 mm 1 mps 747 mmHg 59%
    23:00 +35°C° 0 mm 1 mps 747 mmHg 59%

    Tomorrow, 20 July, Saturday

    Time Temperature Precipitation Wind Pressure Humidity
    00:00 +35°C° 0 mm 1 mps 747 mmHg 60%
    01:00 +35°C° 0 mm 1 mps 747 mmHg 60%
    02:00 +35°C° 0 mm 3 mps 747 mmHg 60%
    03:00 +35°C° 0 mm 4 mps 747 mmHg 60%
    04:00 +35°C° 0 mm 5 mps 747 mmHg 60%
    05:00 +35°C° 0 mm 6 mps 747 mmHg 62%
    06:00 +35°C° 0 mm 6 mps 747 mmHg 65%
    07:00 +35°C° 0 mm 7 mps 748 mmHg 67%
    08:00 +39°C° 0 mm 5 mps 748 mmHg 56%
    09:00 +42°C° 0 mm 4 mps 748 mmHg 44%
    10:00 +43°C° 0 mm 2 mps 748 mmHg 33%
    11:00 +44°C° 0 mm 3 mps 748 mmHg 35%
    12:00 +45°C° 0 mm 5 mps 748 mmHg 38%
    13:00 +45°C° 0 mm 6 mps 748 mmHg 40%
    14:00 +46°C° 0 mm 5 mps 747 mmHg 38%
    15:00 +46°C° 0 mm 5 mps 747 mmHg 36%
    16:00 +45°C° 0 mm 4 mps 746 mmHg 34%
    17:00 +44°C° 0 mm 4 mps 746 mmHg 36%
    18:00 +43°C° 0 mm 3 mps 746 mmHg 38%
    19:00 +40°C° 0 mm 3 mps 747 mmHg 40%
    20:00 +39°C° 0 mm 3 mps 747 mmHg 46%
    21:00 +38°C° 0 mm 3 mps 747 mmHg 51%
    22:00 +37°C° 0 mm 4 mps 747 mmHg 57%
    23:00 +36°C° 0 mm 4 mps 747 mmHg 62%

    Day after tomorrow, 21 July, Sunday

    Time Temperature Precipitation Wind Pressure Humidity
    00:00 +36°C° 0 mm 4 mps 747 mmHg 66%
    01:00 +35°C° 0 mm 4 mps 747 mmHg 71%
    02:00 +35°C° 0 mm 4 mps 747 mmHg 71%
    03:00 +35°C° 0 mm 4 mps 747 mmHg 70%
    04:00 +34°C° 0 mm 4 mps 747 mmHg 69%
    05:00 +34°C° 0 mm 5 mps 747 mmHg 68%
    06:00 +35°C° 0 mm 6 mps 748 mmHg 67%
    07:00 +35°C° 0 mm 7 mps 748 mmHg 65%
    08:00 +38°C° 0 mm 6 mps 748 mmHg 55%
    09:00 +41°C° 0 mm 4 mps 748 mmHg 46%
    10:00 +43°C° 0 mm 3 mps 748 mmHg 36%
    11:00 +44°C° 0 mm 4 mps 748 mmHg 35%
    12:00 +46°C° 0 mm 5 mps 748 mmHg 35%
    13:00 +47°C° 0 mm 6 mps 748 mmHg 35%
    14:00 +47°C° 0 mm 5 mps 747 mmHg 34%
    15:00 +47°C° 0 mm 5 mps 747 mmHg 34%
    16:00 +47°C° 0 mm 5 mps 746 mmHg 34%
    17:00 +44°C° 0 mm 4 mps 746 mmHg 38%
    18:00 +42°C° 0 mm 4 mps 746 mmHg 42%
    19:00 +40°C° 0 mm 3 mps 746 mmHg 46%
    20:00 +39°C° 0 mm 3 mps 746 mmHg 48%
    21:00 +38°C° 0 mm 3 mps 747 mmHg 51%
    22:00 +37°C° 0 mm 3 mps 747 mmHg 54%
    23:00 +36°C° 0 mm 3 mps 747 mmHg 58%

    22 July, Monday

    Time Temperature Precipitation Wind Pressure Humidity
    00:00 +35°C° 0 mm 3 mps 747 mmHg 61%
    01:00 +34°C° 0 mm 4 mps 747 mmHg 65%
    02:00 +33°C° 0 mm 4 mps 747 mmHg 69%
    03:00 +33°C° 0 mm 5 mps 746 mmHg 72%
    04:00 +32°C° 0 mm 5 mps 746 mmHg 75%
    05:00 +33°C° 0 mm 5 mps 747 mmHg 73%
    06:00 +33°C° 0 mm 5 mps 747 mmHg 71%
    07:00 +33°C° 0 mm 5 mps 747 mmHg 68%
    08:00 +36°C° 0 mm 4 mps 747 mmHg 57%
    09:00 +40°C° 0 mm 4 mps 748 mmHg 46%
    10:00 +43°C° 0 mm 3 mps 748 mmHg 35%
    11:00 +44°C° 0 mm 4 mps 747 mmHg 31%
    12:00 +47°C° 0 mm 4 mps 747 mmHg 27%
    13:00 +48°C° 0 mm 5 mps 747 mmHg 23%
    14:00 +48°C° 0 mm 5 mps 746 mmHg 25%
    15:00 +48°C° 0 mm 5 mps 746 mmHg 27%
    16:00 +47°C° 0 mm 6 mps 745 mmHg 29%
    17:00 +45°C° 0 mm 5 mps 745 mmHg 36%
    18:00 +42°C° 0 mm 4 mps 745 mmHg 43%
    19:00 +39°C° 0 mm 3 mps 745 mmHg 50%
    20:00 +38°C° 0 mm 3 mps 745 mmHg 52%
    21:00 +37°C° 0 mm 3 mps 746 mmHg 54%
    22:00 +36°C° 0 mm 2 mps 746 mmHg 56%
    23:00 +36°C° 0 mm 3 mps 745 mmHg 56%

    23 July, Tuesday

    Time Temperature Precipitation Wind Pressure Humidity
    00:00 +35°C° 0 mm 3 mps 745 mmHg 56%
    01:00 +34°C° 0 mm 3 mps 745 mmHg 56%
    02:00 +34°C° 0 mm 4 mps 745 mmHg 60%
    03:00 +33°C° 0 mm 4 mps 745 mmHg 64%
    04:00 +33°C° 0 mm 4 mps 745 mmHg 68%
    05:00 +33°C° 0 mm 5 mps 746 mmHg 68%
    06:00 +33°C° 0 mm 6 mps 746 mmHg 67%
    07:00 +33°C° 0 mm 6 mps 746 mmHg 67%
    08:00 +36°C° 0 mm 5 mps 747 mmHg 56%
    09:00 +39°C° 0 mm 3 mps 747 mmHg 46%
    10:00 +42°C° 0 mm 2 mps 747 mmHg 35%
    11:00 +44°C° 0 mm 3 mps 747 mmHg 32%
    12:00 +45°C° 0 mm 3 mps 746 mmHg 29%
    13:00 +48°C° 0 mm 4 mps 746 mmHg 26%
    14:00 +48°C° 0 mm 5 mps 746 mmHg 26%
    15:00 +47°C° 0 mm 5 mps 745 mmHg 27%
    16:00 +47°C° 0 mm 6 mps 745 mmHg 28%
    17:00 +46°C° 0 mm 5 mps 745 mmHg 30%
    18:00 +43°C° 0 mm 4 mps 745 mmHg 32%
    19:00 +42°C° 0 mm 3 mps 745 mmHg 34%
    20:00 +39°C° 0 mm 3 mps 745 mmHg 39%
    21:00 +37°C° 0 mm 3 mps 745 mmHg 44%
    22:00 +36°C° 0 mm 3 mps 745 mmHg 49%
    23:00 +35°C° 0 mm 3 mps 745 mmHg 52%

    24 July, Wednesday

    Time Temperature Precipitation Wind Pressure Humidity
    00:00 +34°C° 0 mm 4 mps 745 mmHg 56%
    01:00 +34°C° 0 mm 4 mps 745 mmHg 60%
    02:00 +33°C° 0 mm 5 mps 745 mmHg 64%
    03:00 +33°C° 0 mm 5 mps 745 mmHg 67%
    04:00 +32°C° 0 mm 6 mps 745 mmHg 71%
    05:00 +33°C° 0 mm 6 mps 746 mmHg 69%
    06:00 +33°C° 0 mm 6 mps 746 mmHg 68%
    07:00 +34°C° 0 mm 7 mps 746 mmHg 66%
    08:00 +37°C° 0 mm 5 mps 747 mmHg 55%
    09:00 +40°C° 0 mm 4 mps 747 mmHg 44%
    10:00 +42°C° 0 mm 2 mps 747 mmHg 32%
    11:00 +44°C° 0 mm 3 mps 747 mmHg 32%
    12:00 +45°C° 0 mm 4 mps 746 mmHg 31%
    13:00 +47°C° 0 mm 5 mps 746 mmHg 30%
    14:00 +46°C° 0 mm 5 mps 746 mmHg 34%
    15:00 +45°C° 0 mm 5 mps 745 mmHg 37%
    16:00 +43°C° 0 mm 5 mps 745 mmHg 41%
    17:00 +42°C° 0 mm 5 mps 745 mmHg 44%
    18:00 +41°C° 0 mm 4 mps 745 mmHg 47%
    19:00 +38°C° 0 mm 3 mps 745 mmHg 49%
    20:00 +38°C° 0 mm 3 mps 745 mmHg 50%
    21:00 +37°C° 0 mm 2 mps 745 mmHg 50%
    22:00 +36°C° 0 mm 2 mps 746 mmHg 50%
    23:00 +35°C° 0 mm 3 mps 746 mmHg 51%
    Show more